This is the latest recevied weather packets stored in our database for station/object KC4BAM. If no packets are shown the sender has not sent any weather packets the latest 10 day(s).
| Time | Temp. | Humidity | Pressure | Rain* | Wind** | Luminosity | Snow |
|---|---|---|---|---|---|---|---|
| 1778099981 | 13.89° C | 90% | 1004.2 hPa | 0 mm | - | 72 W/m² | - |
| 1778099678 | 13.89° C | 90% | 1004.5 hPa | 0 mm | - | 66 W/m² | - |
| 1778099375 | 13.33° C | 89% | 1004.5 hPa | 0 mm | - | 62 W/m² | - |
| 1778099072 | 13.33° C | 89% | 1004.7 hPa | 1.78 mm | - | 64 W/m² | - |
| 1778098768 | 13.89° C | 89% | 1004.7 hPa | 0 mm | - | 67 W/m² | - |
| 1778098466 | 13.33° C | 88% | 1005 hPa | 0 mm | - | 67 W/m² | - |
| 1778098163 | 13.89° C | 87% | 1004.5 hPa | 0 mm | - | 66 W/m² | - |
| 1778097859 | 13.89° C | 86% | 1004.6 hPa | 1.27 mm | - | 75 W/m² | - |
| 1778097556 | 13.89° C | 85% | 1004.5 hPa | 1.27 mm | - | 106 W/m² | - |
| 1778097253 | 13.89° C | 84% | 1005 hPa | 0 mm | - | 60 W/m² | - |
| 1778096949 | 14.44° C | 82% | 1004.7 hPa | 0 mm | - | 55 W/m² | - |
| 1778096646 | 14.44° C | 82% | 1004.8 hPa | 0 mm | - | 47 W/m² | - |
| 1778096343 | 14.44° C | 81% | 1004.5 hPa | 0 mm | - | 67 W/m² | - |
| 1778096040 | 14.44° C | 81% | 1004.1 hPa | 0 mm | - | 110 W/m² | - |
| 1778095736 | 14.44° C | 81% | 1004.3 hPa | 0 mm | - | 90 W/m² | - |
| 1778095434 | 14.44° C | 81% | 1004.6 hPa | 0 mm | - | 75 W/m² | - |
| 1778095130 | 15° C | 82% | 1004.7 hPa | 0 mm | - | 65 W/m² | - |
| 1778094827 | 15° C | 81% | 1004.4 hPa | 0 mm | - | 82 W/m² | - |
| 1778094524 | 15° C | 82% | 1004.3 hPa | 0 mm | - | 106 W/m² | - |
| 1778094220 | 15° C | 82% | 1004.3 hPa | 0 mm | - | 89 W/m² | - |
| 1778093917 | 15° C | 81% | 1004.6 hPa | 0 mm | - | 123 W/m² | - |
| 1778093614 | 15° C | 81% | 1004.6 hPa | 0 mm | - | 172 W/m² | - |
| 1778093311 | 15° C | 82% | 1004.6 hPa | 0 mm | - | 199 W/m² | - |
| 1778093008 | 15° C | 81% | 1004.6 hPa | 0 mm | - | 169 W/m² | - |
| 1778092706 | 15° C | 81% | 1004.4 hPa | 0 mm | - | 115 W/m² | - |
* Rain latest hour (hover to see other rain measurements)
** Current wind speed in m/s (hover to see current wind gust speed)